Location: Boley
(53.1150°N, 8.2269°W)
Time: 23:37:19
(UTC+00:00)

Cosmos 1503 Rocket - Pass Details

Date: 15 May 2026
Orbit: 749 x 785 km, 74.0° (Epoch: 11 June)

Event Time Altitude Azimuth Distance (km) Brightness Sun altitude
Rises 21:41:00 0° 334° (NNW) 3,232 9.1 -9.2°
Reaches altitude 10° 21:43:24 10° 337° (NNW) 2,298 7.9 -9.5°
Maximum altitude 21:48:36 70° 61° (ENE) 804 4.1 -9.9°
Enters shadow 21:53:05 14° 145° (SE) 2,020 5.5 -10.4°
